This is the latest recevied weather packets stored in our database for station/object R1CBW-13. If no packets are shown the sender has not sent any weather packets the latest 10 day(s).
| Time | Temp. | Humidity | Pressure | Rain* | Wind** | Luminosity | Snow |
|---|---|---|---|---|---|---|---|
| 1777307417 | 6.67° C | 35% | 1005.8 hPa | 0 mm | - | - | - |
| 1777307357 | 6.67° C | 34% | 1006 hPa | 0 mm | - | - | - |
| 1777307297 | 6.11° C | 34% | 1005.6 hPa | 0 mm | - | - | - |
| 1777307237 | 6.67° C | 34% | 1005.6 hPa | 0 mm | - | - | - |
| 1777307177 | 6.67° C | 33% | 1005.6 hPa | 0 mm | - | - | - |
| 1777307117 | 7.22° C | 33% | 1005.6 hPa | 0 mm | - | - | - |
| 1777307057 | 6.67° C | 34% | 1005.6 hPa | 0 mm | - | - | - |
| 1777306997 | 6.67° C | 33% | 1005.9 hPa | 0 mm | - | - | - |
| 1777306937 | 7.22° C | 33% | 1005.6 hPa | 0 mm | - | - | - |
| 1777306877 | 7.22° C | 33% | 1005.5 hPa | 0 mm | - | - | - |
| 1777306817 | 6.11° C | 33% | 1005.8 hPa | 0 mm | - | - | - |
| 1777306757 | 7.22° C | 33% | 1005.8 hPa | 0 mm | - | - | - |
| 1777306697 | 7.22° C | 33% | 1005.6 hPa | 0 mm | - | - | - |
| 1777306637 | 6.67° C | 32% | 1005.5 hPa | 0 mm | - | - | - |
| 1777306576 | 7.78° C | 32% | 1005.6 hPa | 0 mm | - | - | - |
| 1777306517 | 7.22° C | 31% | 1005.5 hPa | 0 mm | - | - | - |
| 1777306457 | 8.33° C | 31% | 1005.6 hPa | 0 mm | - | - | - |
| 1777306397 | 7.78° C | 32% | 1005.5 hPa | 0 mm | - | - | - |
| 1777306337 | 7.22° C | 32% | 1005.4 hPa | 0 mm | - | - | - |
| 1777306276 | 7.78° C | 31% | 1005.5 hPa | 0 mm | - | - | - |
| 1777306217 | 8.89° C | 31% | 1005.4 hPa | 0 mm | - | - | - |
| 1777306157 | 7.78° C | 32% | 1005.4 hPa | 0 mm | - | - | - |
| 1777306097 | 7.22° C | 31% | 1005.5 hPa | 0 mm | - | - | - |
| 1777306037 | 7.22° C | 32% | 1005.9 hPa | 0 mm | - | - | - |
| 1777305976 | 6.11° C | 33% | 1005.7 hPa | 0 mm | - | - | - |
* Rain latest hour (hover to see other rain measurements)
** Current wind speed in m/s (hover to see current wind gust speed)